Location: Newark
(34.1333°N, 7.9667°W)
Time: 22:17:45
(UTC+00:00)

N. Korean satellite - Pass Details

Date: 29 September 2021
Orbit: 450 x 495 km, 97.3° (Epoch: 21 October)

Event Time Altitude Azimuth Distance (km) Brightness Sun altitude
Rises 04:50:27 0° 33° (NNE) 2,547 10.9 -20.3°
Reaches altitude 10° 04:53:12 10° 57° (ENE) 1,671 10.3 -19.7°
Maximum altitude 04:55:23 15° 95° (E) 1,376 9.8 -19.3°
Drops below altitude 10° 04:57:34 10° 132° (SE) 1,676 9.8 -18.8°
Sets 05:00:20 0° 156° (SSE) 2,558 10.4 -18.3°
